Location: Unspecified
(50.7693°N, 0.0000°E)
Time: 06:13:59
(UTC+00:00)

A-11 Canister half - Pass Details

Date: 23 June 2019
Orbit: 1527 x 1682 km, 47.3° (Epoch: 13 October)

Event Time Altitude Azimuth Distance (km) Brightness Sun altitude
Exits shadow 02:27:22 - 182° (S) 4,393 10.9 -9.2°
Reaches altitude 10° 02:30:11 10° 170° (S) 3,756 10.6 -8.9°
Maximum altitude 02:36:11 19° 130° (SE) 3,075 10.6 -8.4°
Drops below altitude 10° 02:42:06 10° 90° (E) 3,711 11.6 -7.8°
Sets 02:46:16 0° 74° (ENE) 4,687 12.5 -7.5°
